FW8044 Weather Reports


time (UTC)temp
C
wind
direction
speed
KPH
gust
KPH
rain 1hr
cm
rain 24hr
cm
rain mn
cm
humidity
%
barometer
mb
20260504160233 25 242 3.2 3.2 0.00 0.00 0.00 42 1001.7
20260504150659 21 243 1.6 8.0 0.00 0.00 0.00 48 1002.2
20260504150155 21 285 1.6 3.2 0.00 0.00 0.00 48 1002.0
20260504141124 17 250 4.8 9.7 0.00 0.00 0.00 54 1002.6
20260504140621 17 214 3.2 11.3 0.00 0.00 0.00 55 1002.4
20260504140117 17 235 4.8 14.5 0.00 0.00 0.00 55 1002.6
20260504130545 13 244 0.0 1.6 0.00 0.00 0.00 61 1003.0
20260504110433 10 223 1.6 1.6 0.00 0.00 0.00 66 1003.5
20260504100349 11 225 1.6 3.2 0.00 0.00 0.00 62 1004.0
20260504081743 12 236 1.6 3.2 0.00 0.00 0.00 56 1005.2
20260504081239 12 225 3.2 4.8 0.00 0.00 0.00 56 1005.2
20260504080735 12 216 3.2 3.2 0.00 0.00 0.00 56 1005.1
20260504080232 12 229 3.2 4.8 0.00 0.00 0.00 55 1005.1
20260504070159 13 226 3.2 3.2 0.00 0.00 0.00 49 1006.1
20260504060120 13 244 0.0 1.6 0.00 0.00 0.00 49 1006.9
20260504050548 15 247 1.6 1.6 0.00 0.00 0.00 41 1007.4
20260504045542 14 252 3.2 4.8 0.00 0.00 0.00 42 1007.3
20260504045037 14 245 1.6 1.6 0.00 0.00 0.00 44 1007.3
20260504044535 14 245 0.0 1.6 0.00 0.00 0.00 42 1007.4
20260504044032 14 244 0.0 1.6 0.00 0.00 0.00 42 1007.5
20260504043529 15 235 0.0 1.6 0.00 0.00 0.00 43 1007.5
20260504043026 15 246 0.0 1.6 0.00 0.00 0.00 41 1007.6
20260504042523 14 220 1.6 3.2 0.00 0.00 0.00 41 1007.4
20260504042020 14 238 1.6 3.2 0.00 0.00 0.00 42 1007.9
20260504041516 14 246 0.0 3.2 0.00 0.00 0.00 42 1007.7
20260504041012 14 234 1.6 3.2 0.00 0.00 0.00 41 1007.6
20260504040510 14 236 0.0 1.6 0.00 0.00 0.00 40 1007.6
20260504040006 15 237 0.0 1.6 0.00 0.00 0.00 39 1007.7
20260504035503 15 227 0.0 1.6 0.00 0.00 0.00 38 1008.1
20260504034959 16 226 0.0 1.6 0.00 0.00 0.00 35 1008.0
20260504034457 16 217 1.6 3.2 0.00 0.00 0.00 33 1008.1
20260504033954 17 235 1.6 1.6 0.00 0.00 0.00 33 1008.0
20260504033452 17 240 1.6 3.2 0.00 0.00 0.00 32 1008.2
20260504032949 17 242 0.0 1.6 0.00 0.00 0.00 32 1008.2
20260504032445 16 239 0.0 3.2 0.00 0.00 0.00 32 1008.5
20260504031942 17 233 0.0 1.6 0.00 0.00 0.00 33 1008.4
20260504031439 17 243 0.0 0.0 0.00 0.00 0.00 32 1008.6
20260504030936 17 243 0.0 1.6 0.00 0.00 0.00 32 1008.4
20260504030433 17 243 0.0 1.6 0.00 0.00 0.00 32 1008.6
20260504025929 17 246 0.0 1.6 0.00 0.00 0.00 32 1008.6
20260504025426 17 241 0.0 3.2 0.00 0.00 0.00 31 1008.5
20260504024923 17 256 0.0 1.6 0.00 0.00 0.00 31 1008.6
20260504024420 17 239 0.0 1.6 0.00 0.00 0.00 31 1008.5
20260504023917 17 239 0.0 1.6 0.00 0.00 0.00 32 1008.5
20260504023413 17 242 0.0 1.6 0.00 0.00 0.00 32 1008.5
20260504022909 17 240 0.0 1.6 0.00 0.00 0.00 32 1008.6
20260504022406 17 243 1.6 1.6 0.00 0.00 0.00 31 1008.2
20260504021902 17 250 1.6 3.2 0.00 0.00 0.00 31 1008.3
20260504021400 17 236 0.0 0.0 0.00 0.00 0.00 29 1008.5
20260504020857 17 236 0.0 0.0 0.00 0.00 0.00 29 1008.3
20260504020353 17 246 0.0 0.0 0.00 0.00 0.00 29 1008.4
20260504015849 17 241 0.0 0.0 0.00 0.00 0.00 29 1008.3
20260504015345 17 239 0.0 0.0 0.00 0.00 0.00 29 1008.1
20260504014842 17 244 0.0 0.0 0.00 0.00 0.00 30 1008.2
20260504014338 18 239 0.0 0.0 0.00 0.00 0.00 29 1008.2
20260504013836 18 238 0.0 0.0 0.00 0.00 0.00 29 1008.3
20260504013333 18 236 0.0 1.6 0.00 0.00 0.00 28 1008.2
20260504012830 18 239 0.0 0.0 0.00 0.00 0.00 29 1008.1
20260504012328 18 237 0.0 1.6 0.00 0.00 0.00 29 1008.2
20260504011825 18 241 0.0 0.0 0.00 0.00 0.00 28 1008.2
20260504011321 19 241 0.0 1.6 0.00 0.00 0.00 28 1008.3
20260504010817 20 240 0.0 0.0 0.00 0.00 0.00 27 1008.1
20260504010313 20 240 0.0 0.0 0.00 0.00 0.00 27 1008.3
20260504005810 20 243 0.0 1.6 0.00 0.00 0.00 27 1008.3
20260504005307 21 235 0.0 0.0 0.00 0.00 0.00 27 1008.3
20260504004804 21 237 1.6 1.6 0.00 0.00 0.00 25 1008.3
20260504004302 22 244 0.0 1.6 0.00 0.00 0.00 25 1008.2
20260504003758 22 203 0.0 1.6 0.00 0.00 0.00 24 1008.4
20260504003255 22 243 0.0 0.0 0.00 0.00 0.00 24 1008.3
20260504002751 23 247 0.0 0.0 0.00 0.00 0.00 24 1008.4
20260504002249 23 243 1.6 4.8 0.00 0.00 0.00 23 1008.3
20260504001746 22 247 0.0 1.6 0.00 0.00 0.00 24 1008.2
20260504001243 23 234 0.0 4.8 0.00 0.00 0.00 24 1008.4
20260504000740 23 252 0.0 1.6 0.00 0.00 0.00 24 1008.4
20260504000237 23 286 0.0 3.2 0.00 0.00 0.00 23 1008.3
20260503235735 23 240 1.6 4.8 0.00 0.00 0.00 21 1008.4
20260503235232 24 258 1.6 4.8 0.00 0.00 0.00 22 1008.3
20260503234730 24 257 1.6 3.2 0.00 0.00 0.00 22 1008.4
20260503234227 24 224 1.6 8.0 0.00 0.00 0.00 21 1008.3
20260503233724 24 251 0.0 1.6 0.00 0.00 0.00 22 1008.4
20260503233220 23 254 1.6 4.8 0.00 0.00 0.00 21 1008.2
20260503232717 24 349 4.8 8.0 0.00 0.00 0.00 20 1008.3
20260503232214 23 235 3.2 4.8 0.00 0.00 0.00 23 1008.3
20260503231713 23 325 1.6 1.6 0.00 0.00 0.00 24 1008.5
20260503231208 23 333 4.8 9.7 0.00 0.00 0.00 21 1008.2
20260503230705 24 333 8.0 22.5 0.00 0.00 0.00 20 1008.3
20260503230202 23 271 3.2 8.0 0.00 0.00 0.00 23 1008.3
20260503225659 23 353 6.4 12.9 0.00 0.00 0.00 21 1008.3
20260503225154 24 356 11.3 14.5 0.00 0.00 0.00 21 1008.3
20260503224651 24 270 1.6 8.0 0.00 0.00 0.00 25 1008.5
20260503224149 25 354 3.2 9.7 0.00 0.00 0.00 22 1008.4
20260503223647 25 66 1.6 4.8 0.00 0.00 0.00 23 1008.5
20260503223143 25 249 4.8 4.8 0.00 0.00 0.00 22 1008.4
20260503222640 25 164 3.2 4.8 0.00 0.00 0.00 23 1008.1
20260503222138 25 258 0.0 1.6 0.00 0.00 0.00 23 1008.2
20260503221636 24 196 6.4 12.9 0.00 0.00 0.00 22 1008.4
20260503221133 24 269 4.8 8.0 0.00 0.00 0.00 22 1008.3
20260503220630 24 244 3.2 9.7 0.00 0.00 0.00 22 1008.5
20260503220126 25 250 6.4 9.7 0.00 0.00 0.00 21 1008.5
20260503215624 25 266 3.2 11.3 0.00 0.00 0.00 23 1008.5
20260503215120 24 264 4.8 9.7 0.00 0.00 0.00 23 1008.6
20260503214619 24 257 8.0 12.9 0.00 0.00 0.00 22 1008.6
20260503214115 25 266 4.8 12.9 0.00 0.00 0.00 21 1008.7
20260503213614 25 306 8.0 11.3 0.00 0.00 0.00 21 1008.3
20260503213110 25 206 3.2 8.0 0.00 0.00 0.00 21 1008.4
20260503212608 26 266 1.6 3.2 0.00 0.00 0.00 23 1008.5
20260503212105 26 258 4.8 9.7 0.00 0.00 0.00 22 1008.5
20260503211602 25 277 4.8 8.0 0.00 0.00 0.00 21 1008.3
20260503211057 25 284 4.8 9.7 0.00 0.00 0.00 23 1008.5
20260503210554 25 31 4.8 8.0 0.00 0.00 0.00 22 1008.6
20260503210050 25 255 3.2 8.0 0.00 0.00 0.00 23 1008.8
20260503205547 25 306 9.7 14.5 0.00 0.00 0.00 22 1008.8
20260503205043 25 238 4.8 14.5 0.00 0.00 0.00 23 1009.1
20260503204540 25 250 4.8 14.5 0.00 0.00 0.00 22 1009.1
20260503204038 25 269 8.0 17.7 0.00 0.00 0.00 22 1008.8
20260503203535 25 268 4.8 11.3 0.00 0.00 0.00 23 1008.8
20260503203032 25 253 4.8 14.5 0.00 0.00 0.00 22 1009.0
20260503202530 25 316 1.6 3.2 0.00 0.00 0.00 25 1009.2
20260503202027 24 236 3.2 12.9 0.00 0.00 0.00 26 1009.2
20260503201525 25 283 8.0 14.5 0.00 0.00 0.00 24 1009.3
20260503201022 25 253 1.6 3.2 0.00 0.00 0.00 26 1009.4
20260503200518 25 206 4.8 9.7 0.00 0.00 0.00 24 1009.1
20260503200015 24 234 4.8 9.7 0.00 0.00 0.00 24 1009.6
20260503195513 24 279 3.2 8.0 0.00 0.00 0.00 24 1009.4
20260503195009 25 198 4.8 11.3 0.00 0.00 0.00 24 1009.2
20260503194507 24 281 3.2 9.7 0.00 0.00 0.00 25 1009.4
20260503194006 24 292 4.8 11.3 0.00 0.00 0.00 24 1009.2
20260503193503 25 297 1.6 8.0 0.00 0.00 0.00 24 1009.4
20260503192958 25 235 1.6 4.8 0.00 0.00 0.00 25 1009.7
20260503192455 24 240 4.8 16.1 0.00 0.00 0.00 24 1009.7
20260503191950 24 261 4.8 11.3 0.00 0.00 0.00 25 1009.7
20260503191448 23 3 1.6 3.2 0.00 0.00 0.00 27 1009.5
20260503190944 22 245 1.6 3.2 0.00 0.00 0.00 27 1009.6
20260503190442 23 282 6.4 8.0 0.00 0.00 0.00 25 1009.5
20260503185938 23 339 3.2 4.8 0.00 0.00 0.00 26 1009.2
20260503185435 22 285 3.2 8.0 0.00 0.00 0.00 27 1009.5
20260503184934 22 247 3.2 8.0 0.00 0.00 0.00 27 1009.4
20260503184431 22 4 3.2 4.8 0.00 0.00 0.00 28 1009.5
20260503183927 22 269 4.8 8.0 0.00 0.00 0.00 27 1009.4
20260503183424 22 238 12.9 22.5 0.00 0.00 0.00 25 1009.8
20260503182921 22 244 3.2 11.3 0.00 0.00 0.00 28 1009.7
20260503182420 22 259 4.8 8.0 0.00 0.00 0.00 34 1009.4
20260503181917 21 298 4.8 4.8 0.00 0.00 0.00 38 1009.8
20260503181414 20 226 3.2 9.7 0.00 0.00 0.00 38 1009.5
20260503180910 21 268 8.0 12.9 0.00 0.00 0.00 37 1009.9
20260503180408 22 268 3.2 4.8 0.00 0.00 0.00 38 1009.8
20260503175904 23 263 1.6 4.8 0.00 0.00 0.00 33 1009.9
20260503175403 23 285 3.2 4.8 0.00 0.00 0.00 31 1009.8
20260503174858 22 230 0.0 4.8 0.00 0.00 0.00 32 1009.8
20260503174356 21 298 4.8 9.7 0.00 0.00 0.00 31 1009.7
20260503173851 21 263 1.6 4.8 0.00 0.00 0.00 32 1010.1
20260503173348 21 356 3.2 8.0 0.00 0.00 0.00 32 1009.6
20260503172844 21 284 3.2 4.8 0.00 0.00 0.00 31 1009.6
20260503172342 21 263 3.2 3.2 0.00 0.00 0.00 33 1009.7
20260503171838 22 161 4.8 9.7 0.00 0.00 0.00 31 1010.2
20260503171335 23 252 3.2 3.2 0.00 0.00 0.00 32 1010.4
20260503170832 22 255 3.2 11.3 0.00 0.00 0.00 33 1009.8
20260503170328 22 270 4.8 12.9 0.00 0.00 0.00 32 1009.9